STARLINK-4739, 53792

Orbit data source: Space-Track

STARLINK-4739, 53792 is a payload satellite owned by SpaceX/Seattle (US) in LEO that was launched on Sun, 11 Sep 2022 UTC via an FALCON 9 launch vehicle from the Air Force Eastern Test Range (AFETR). Payload-class satellites include a variety of spacecraft equipped with specific instruments for various scientific and technological missions. These include communications satellites like Starlink; space stations such as the ISS; scientific satellites like the Hubble; Earth observation satellites from companies like Planet Labs, Umbra, and HawkEye 360; GPS; miniature CubeSats for education and research; and military/defense satellites.

Loading next visibility...
Identifier
53792, 2022-111V
Orbit
LEO
Country
Flag of USUS
Related business
Manufacturer
SpaceX/Seattle
Mission
Operational Commercial Communications
Bus & Motor
STARLINK, Unknown motor
Mass
305 kg wet, ~290 kg dry
Launch date (UTC)
2022-09-11 (3 years ago)
Launch vehicle
FALCON 9
Launch site
Air Force Eastern Test Range (AFETR)
Object type
Payload
Rocket body
Debris
Shape & HBR
Box + 1 Pan, 10.1 m
Radar Cross Section
13.562 m², Large (>1 m²)

Expand to show TLE details & history
Last TLE update: 8 hours ago

TLE from 8 hours ago
0 STARLINK-4739
1 53792U 22111V   26035.45443233  .00000826  00000-0  69961-4 0  9998
2 53792  53.2191  63.6743 0001561  98.2700 261.8469 15.08839087188661
Epoch: 2026-02-04T10:54Z
TLE epoch observation values (Epoch: 2026-02-04T10:54:22.953Z)
Latitude
-0.00003°
Longitude
125.45786°
Altitude
540.797 km
Speed
7.593 km/s
True Right ascension
04h 14m 41s
True Declination
0° 00' 00"
Sunlit
Object was in daylight at epoch
Visualization orbit readout
Latitude
Unknown
Longitude
Unknown
Altitude
Unknown
Speed
Unknown
Apparent Right ascension
Unknown
Apparent Declination
Unknown
Sunlit
N/A
Visualization observer readout
Local Sidereal Time
20:24:13
Azimuth
Unknown
Elevation
Unknown
Doppler factor
Unknown
Orbital elements
Apogee altitude
541.071 km
Perigee altitude
538.911 km
Semi-major axis
6,918.128 km
Eccentricity
0.00016
Inclination
53.2191°
RAAN
63.6743°
Arg. of periapsis
98.27°
True anomaly
261.82919°
Mean anomaly
261.8469°
Eccentric anomaly
261.83805°
Mean motion
3.7719 °/min
Orbital period
95.44 mins
BSTAR
0.000069961
Loading maneuver chart data...
Computing Atmospheric mass density...
Loading historical data...
Loading historical data...
Loading historical data...
Loading historical data...
Loading historical data...
Loading historical data...
Loading historical data...

Documentation

Showing up to 5 results
|